"Sample Date","Sample Time","Sample Value","Units","Flow Rate","Laser Status","Micron Size 0","Counts/Channel 0","Micron Size 1","Counts/Channel 1","Micron Size 2","Counts/Channel 2","Micron Size 3","Counts/Channel 3","Micron Size 4","Counts/Channel 4","Micron Size 5","Counts/Channel 5","Micron Size 6","Counts/Channel 6","Micron Size 7","Counts/Channel 7","Micron Size 8","Counts/Channel 8","Micron Size 9","Counts/Channel 9","Micron Size 10","Counts/Channel 10","Micron Size 11","Counts/Channel 11","Micron Size 12","Counts/Channel 12","Micron Size 13","Counts/Channel 13","Micron Size 14","Counts/Channel 14","Micron Size 15","Counts/Channel 15","Micron Size 16","Counts/Channel 16","Micron Size 17","Counts/Channel 17","Micron Size 18","Counts/Channel 18","Micron Size 19","Counts/Channel 19","Micron Size 20","Counts/Channel 20","Micron Size 21","Counts/Channel 21","Micron Size 22","Counts/Channel 22","Micron Size 23","Counts/Channel 23","Micron Size 24","Counts/Channel 24","Micron Size 25","Counts/Channel 25","Micron Size 26","Counts/Channel 26","Micron Size 27","Counts/Channel 27","Micron Size 28","Counts/Channel 28","Micron Size 29","Counts/Channel 29","Micron Size 30","Counts/Channel 30","Micron Size 31","Counts/Channel 31"
"05/02/07","23:00:03",54222.000,"cc",28258.354,1,0.100,42794.000,0.200,10091.000,0.300,1251.000,0.500,73.000,1.000,13.000,5.000,0
"05/02/07","23:00:09",54293.000,"cc",28342.479,1,0.100,42959.000,0.200,9999.000,0.300,1244.000,0.500,79.000,1.000,12.000,5.000,0
"05/02/07","23:00:15",54277.000,"cc",28351.590,1,0.100,42885.000,0.200,10090.000,0.300,1214.000,0.500,72.000,1.000,16.000,5.000,0
"05/02/07","23:00:21",53855.000,"cc",28323.426,1,0.100,42454.000,0.200,10040.000,0.300,1284.000,0.500,71.000,1.000,6.000,5.000,0
"05/02/07","23:00:27",53683.000,"cc",28257.107,1,0.100,42216.000,0.200,10125.000,0.300,1248.000,0.500,82.000,1.000,12.000,5.000,0
"05/02/07","23:00:33",53413.000,"cc",28335.508,1,0.100,42020.000,0.200,10072.000,0.300,1238.000,0.500,69.000,1.000,14.000,5.000,0
"05/02/07","23:00:39",53585.000,"cc",28365.719,1,0.100,42272.000,0.200,10001.000,0.300,1229.000,0.500,73.000,1.000,10.000,5.000,0
"05/02/07","23:00:45",53548.000,"cc",28313.594,1,0.100,42418.000,0.200,9847.000,0.300,1179.000,0.500,93.000,1.000,11.000,5.000,0
"05/02/07","23:00:51",53638.000,"cc",28259.115,1,0.100,42386.000,0.200,9970.000,0.300,1203.000,0.500,65.000,1.000,14.000,5.000,0
"05/02/07","23:00:57",53649.000,"cc",28313.861,1,0.100,42372.000,0.200,9986.000,0.300,1216.000,0.500,68.000,1.000,7.000,5.000,0
"05/02/07","23:01:03",53252.000,"cc",28312.738,1,0.100,41955.000,0.200,10005.000,0.300,1204.000,0.500,76.000,1.000,12.000,5.000,0
"05/02/07","23:01:09",52236.000,"cc",28355.258,1,0.100,41169.000,0.200,9811.000,0.300,1174.000,0.500,66.000,1.000,16.000,5.000,0
"05/02/07","23:01:15",51351.000,"cc",28380.658,1,0.100,40336.000,0.200,9673.000,0.300,1223.000,0.500,100.000,1.000,19.000,5.000,0
"05/02/07","23:01:21",51701.000,"cc",28250.631,1,0.100,40500.000,0.200,9899.000,0.300,1218.000,0.500,73.000,1.000,11.000,5.000,0
"05/02/07","23:01:27",51059.000,"cc",28288.074,1,0.100,40326.000,0.200,9443.000,0.300,1188.000,0.500,94.000,1.000,8.000,5.000,0
"05/02/07","23:01:33",51260.000,"cc",28289.477,1,0.100,40544.000,0.200,9484.000,0.300,1145.000,0.500,70.000,1.000,17.000,5.000,0
"05/02/07","23:01:39",51573.000,"cc",28376.150,1,0.100,40877.000,0.200,9410.000,0.300,1189.000,0.500,81.000,1.000,16.000,5.000,0
"05/02/07","23:01:45",51192.000,"cc",28316.930,1,0.100,40431.000,0.200,9494.000,0.300,1168.000,0.500,85.000,1.000,14.000,5.000,0
"05/02/07","23:01:51",51796.000,"cc",28303.135,1,0.100,40616.000,0.200,9834.000,0.300,1254.000,0.500,79.000,1.000,13.000,5.000,0
"05/02/07","23:01:57",51976.000,"cc",28253.262,1,0.100,40992.000,0.200,9636.000,0.300,1264.000,0.500,75.000,1.000,9.000,5.000,0
"05/02/07","23:02:03",51442.000,"cc",28288.611,1,0.100,40465.000,0.200,9651.000,0.300,1236.000,0.500,81.000,1.000,9.000,5.000,0
"05/02/07","23:02:09",52174.000,"cc",28321.865,1,0.100,41044.000,0.200,9838.000,0.300,1210.000,0.500,69.000,1.000,13.000,5.000,0
"05/02/07","23:02:15",51907.000,"cc",28325.096,1,0.100,40858.000,0.200,9753.000,0.300,1219.000,0.500,59.000,1.000,18.000,5.000,0
"05/02/07","23:02:21",51260.000,"cc",28334.990,1,0.100,40492.000,0.200,9500.000,0.300,1187.000,0.500,64.000,1.000,17.000,5.000,0
"05/02/07","23:02:27",50643.000,"cc",28347.412,1,0.100,39888.000,0.200,9535.000,0.300,1133.000,0.500,67.000,1.000,20.000,5.000,0
"05/02/07","23:02:33",50762.000,"cc",28345.426,1,0.100,40065.000,0.200,9459.000,0.300,1161.000,0.500,65.000,1.000,12.000,5.000,0
"05/02/07","23:02:39",50538.000,"cc",28302.514,1,0.100,39905.000,0.200,9330.000,0.300,1232.000,0.500,57.000,1.000,14.000,5.000,0
"05/02/07","23:02:45",50521.000,"cc",28359.031,1,0.100,39749.000,0.200,9505.000,0.300,1169.000,0.500,85.000,1.000,13.000,5.000,0
"05/02/07","23:02:51",50327.000,"cc",28308.598,1,0.100,39589.000,0.200,9447.000,0.300,1183.000,0.500,88.000,1.000,20.000,5.000,0
"05/02/07","23:02:57",49702.000,"cc",28325.967,1,0.100,39080.000,0.200,9394.000,0.300,1128.000,0.500,85.000,1.000,15.000,5.000,0
"05/02/07","23:03:03",50282.000,"cc",28279.313,1,0.100,39628.000,0.200,9381.000,0.300,1160.000,0.500,96.000,1.000,17.000,5.000,0
"05/02/07","23:03:09",50195.000,"cc",28274.535,1,0.100,39554.000,0.200,9429.000,0.300,1124.000,0.500,71.000,1.000,17.000,5.000,0
"05/02/07","23:03:15",49704.000,"cc",28326.758,1,0.100,39106.000,0.200,9368.000,0.300,1137.000,0.500,81.000,1.000,12.000,5.000,0
"05/02/07","23:03:21",50117.000,"cc",28348.549,1,0.100,39372.000,0.200,9455.000,0.300,1194.000,0.500,85.000,1.000,11.000,5.000,0
"05/02/07","23:03:27",50409.000,"cc",28310.674,1,0.100,39870.000,0.200,9314.000,0.300,1146.000,0.500,68.000,1.000,11.000,5.000,0
"05/02/07","23:03:33",50256.000,"cc",28307.813,1,0.100,39619.000,0.200,9376.000,0.300,1159.000,0.500,91.000,1.000,11.000,5.000,0
"05/02/07","23:03:39",49642.000,"cc",28354.586,1,0.100,39012.000,0.200,9376.000,0.300,1156.000,0.500,75.000,1.000,23.000,5.000,0
"05/02/07","23:03:45",49737.000,"cc",28308.727,1,0.100,39149.000,0.200,9337.000,0.300,1166.000,0.500,73.000,1.000,12.000,5.000,0
"05/02/07","23:03:51",50317.000,"cc",28367.119,1,0.100,39661.000,0.200,9366.000,0.300,1200.000,0.500,75.000,1.000,15.000,5.000,0
"05/02/07","23:03:57",49811.000,"cc",28249.844,1,0.100,39174.000,0.200,9371.000,0.300,1162.000,0.500,86.000,1.000,18.000,5.000,0
"05/02/07","23:04:03",49971.000,"cc",28267.992,1,0.100,39316.000,0.200,9448.000,0.300,1117.000,0.500,68.000,1.000,22.000,5.000,0
"05/02/07","23:04:09",50067.000,"cc",28357.947,1,0.100,39345.000,0.200,9401.000,0.300,1221.000,0.500,80.000,1.000,20.000,5.000,0
"05/02/07","23:04:15",49822.000,"cc",28330.340,1,0.100,39137.000,0.200,9483.000,0.300,1105.000,0.500,82.000,1.000,15.000,5.000,0
"05/02/07","23:04:21",49793.000,"cc",28286.481,1,0.100,39263.000,0.200,9310.000,0.300,1131.000,0.500,77.000,1.000,11.000,5.000,1.000
"05/02/07","23:04:27",50011.000,"cc",28279.736,1,0.100,39467.000,0.200,9314.000,0.300,1147.000,0.500,62.000,1.000,21.000,5.000,0
"05/02/07","23:04:33",49830.000,"cc",28356.221,1,0.100,39313.000,0.200,9260.000,0.300,1179.000,0.500,60.000,1.000,18.000,5.000,0
"05/02/07","23:04:39",49670.000,"cc",28255.924,1,0.100,39166.000,0.200,9274.000,0.300,1150.000,0.500,68.000,1.000,12.000,5.000,0
"05/02/07","23:04:45",50091.000,"cc",28332.672,1,0.100,39352.000,0.200,9450.000,0.300,1190.000,0.500,85.000,1.000,14.000,5.000,0
"05/02/07","23:04:51",50587.000,"cc",28350.512,1,0.100,39843.000,0.200,9533.000,0.300,1128.000,0.500,67.000,1.000,16.000,5.000,0
"05/02/07","23:04:57",50424.000,"cc",28356.861,1,0.100,39666.000,0.200,9437.000,0.300,1204.000,0.500,84.000,1.000,33.000,5.000,0
"05/02/07","23:05:03",50690.000,"cc",28300.834,1,0.100,40182.000,0.200,9268.000,0.300,1176.000,0.500,52.000,1.000,12.000,5.000,0
"05/02/07","23:05:09",50611.000,"cc",28270.590,1,0.100,39906.000,0.200,9503.000,0.300,1128.000,0.500,60.000,1.000,14.000,5.000,0
"05/02/07","23:05:15",50785.000,"cc",28362.301,1,0.100,40000.000,0.200,9500.000,0.300,1188.000,0.500,76.000,1.000,21.000,5.000,0
"05/02/07","23:05:21",50522.000,"cc",28324.295,1,0.100,39723.000,0.200,9486.000,0.300,1221.000,0.500,74.000,1.000,18.000,5.000,0
"05/02/07","23:05:27",50290.000,"cc",28344.490,1,0.100,39703.000,0.200,9377.000,0.300,1140.000,0.500,57.000,1.000,13.000,5.000,0
"05/02/07","23:05:33",50072.000,"cc",28284.566,1,0.100,39327.000,0.200,9520.000,0.300,1153.000,0.500,57.000,1.000,15.000,5.000,0
"05/02/07","23:05:39",50353.000,"cc",28310.684,1,0.100,39766.000,0.200,9366.000,0.300,1148.000,0.500,60.000,1.000,13.000,5.000,0
"05/02/07","23:05:45",49855.000,"cc",28328.565,1,0.100,39533.000,0.200,9101.000,0.300,1139.000,0.500,65.000,1.000,17.000,5.000,0
"05/02/07","23:05:51",50237.000,"cc",28339.020,1,0.100,39792.000,0.200,9277.000,0.300,1101.000,0.500,61.000,1.000,6.000,5.000,0
"05/02/07","23:05:57",50014.000,"cc",28313.631,1,0.100,39561.000,0.200,9261.000,0.300,1117.000,0.500,60.000,1.000,15.000,5.000,0
"05/02/07","23:06:03",49846.000,"cc",28280.240,1,0.100,39253.000,0.200,9340.000,0.300,1173.000,0.500,68.000,1.000,12.000,5.000,0
"05/02/07","23:06:09",50366.000,"cc",28259.213,1,0.100,39648.000,0.200,9450.000,0.300,1203.000,0.500,54.000,1.000,11.000,5.000,0
"05/02/07","23:06:15",50272.000,"cc",28318.754,1,0.100,39601.000,0.200,9447.000,0.300,1157.000,0.500,58.000,1.000,9.000,5.000,0
"05/02/07","23:06:21",50186.000,"cc",28327.967,1,0.100,39567.000,0.200,9420.000,0.300,1130.000,0.500,55.000,1.000,14.000,5.000,0
"05/02/07","23:06:27",49836.000,"cc",28349.844,1,0.100,39341.000,0.200,9324.000,0.300,1093.000,0.500,66.000,1.000,12.000,5.000,0
"05/02/07","23:06:33",49530.000,"cc",28406.088,1,0.100,39054.000,0.200,9243.000,0.300,1164.000,0.500,55.000,1.000,14.000,5.000,0
"05/02/07","23:06:39",49822.000,"cc",28318.004,1,0.100,39220.000,0.200,9355.000,0.300,1130.000,0.500,74.000,1.000,43.000,5.000,0
"05/02/07","23:06:45",49891.000,"cc",28300.035,1,0.100,39367.000,0.200,9319.000,0.300,1125.000,0.500,57.000,1.000,23.000,5.000,0
"05/02/07","23:06:51",49295.000,"cc",28317.410,1,0.100,38815.000,0.200,9234.000,0.300,1174.000,0.500,62.000,1.000,10.000,5.000,0
"05/02/07","23:06:57",49477.000,"cc",28295.301,1,0.100,39097.000,0.200,9112.000,0.300,1193.000,0.500,65.000,1.000,9.000,5.000,1.000
"05/02/07","23:07:03",49984.000,"cc",28271.172,1,0.100,39440.000,0.200,9357.000,0.300,1127.000,0.500,56.000,1.000,4.000,5.000,0
"05/02/07","23:07:09",49524.000,"cc",28256.873,1,0.100,39048.000,0.200,9345.000,0.300,1075.000,0.500,44.000,1.000,12.000,5.000,0
"05/02/07","23:07:15",49657.000,"cc",28319.842,1,0.100,39119.000,0.200,9258.000,0.300,1222.000,0.500,48.000,1.000,10.000,5.000,0
"05/02/07","23:07:21",49755.000,"cc",28350.434,1,0.100,39301.000,0.200,9257.000,0.300,1145.000,0.500,46.000,1.000,6.000,5.000,0
"05/02/07","23:07:27",49805.000,"cc",28313.084,1,0.100,39262.000,0.200,9351.000,0.300,1110.000,0.500,78.000,1.000,4.000,5.000,0
"05/02/07","23:07:33",49942.000,"cc",28298.115,1,0.100,39230.000,0.200,9479.000,0.300,1175.000,0.500,52.000,1.000,6.000,5.000,0
"05/02/07","23:07:39",49612.000,"cc",28342.467,1,0.100,39089.000,0.200,9360.000,0.300,1109.000,0.500,49.000,1.000,5.000,5.000,0
"05/02/07","23:07:45",50162.000,"cc",28309.850,1,0.100,39765.000,0.200,9207.000,0.300,1123.000,0.500,56.000,1.000,11.000,5.000,0
"05/02/07","23:07:51",49663.000,"cc",28326.953,1,0.100,38972.000,0.200,9530.000,0.300,1107.000,0.500,49.000,1.000,5.000,5.000,0
"05/02/07","23:07:57",48960.000,"cc",28330.857,1,0.100,38626.000,0.200,9155.000,0.300,1104.000,0.500,62.000,1.000,13.000,5.000,0
"05/02/07","23:08:03",49344.000,"cc",28280.631,1,0.100,39080.000,0.200,9103.000,0.300,1102.000,0.500,51.000,1.000,8.000,5.000,0
"05/02/07","23:08:09",49142.000,"cc",28347.330,1,0.100,38630.000,0.200,9331.000,0.300,1129.000,0.500,47.000,1.000,5.000,5.000,0
"05/02/07","23:08:15",49490.000,"cc",28311.523,1,0.100,38816.000,0.200,9435.000,0.300,1176.000,0.500,53.000,1.000,10.000,5.000,0
"05/02/07","23:08:21",49145.000,"cc",28337.158,1,0.100,38735.000,0.200,9252.000,0.300,1102.000,0.500,48.000,1.000,8.000,5.000,0
"05/02/07","23:08:27",49505.000,"cc",28373.631,1,0.100,39101.000,0.200,9196.000,0.300,1153.000,0.500,49.000,1.000,6.000,5.000,0
"05/02/07","23:08:33",49279.000,"cc",28345.047,1,0.100,38886.000,0.200,9210.000,0.300,1130.000,0.500,45.000,1.000,7.000,5.000,1.000
"05/02/07","23:08:39",49022.000,"cc",28291.020,1,0.100,38457.000,0.200,9327.000,0.300,1181.000,0.500,50.000,1.000,7.000,5.000,0
"05/02/07","23:08:45",49107.000,"cc",28270.799,1,0.100,38812.000,0.200,9119.000,0.300,1108.000,0.500,65.000,1.000,3.000,5.000,0
"05/02/07","23:08:51",48916.000,"cc",28284.555,1,0.100,38625.000,0.200,9162.000,0.300,1058.000,0.500,60.000,1.000,11.000,5.000,0
"05/02/07","23:08:57",49146.000,"cc",28267.982,1,0.100,38580.000,0.200,9398.000,0.300,1119.000,0.500,44.000,1.000,5.000,5.000,0
"05/02/07","23:09:03",49585.000,"cc",28418.023,1,0.100,39225.000,0.200,9211.000,0.300,1090.000,0.500,52.000,1.000,7.000,5.000,0
"05/02/07","23:09:09",49224.000,"cc",28355.807,1,0.100,38832.000,0.200,9142.000,0.300,1201.000,0.500,42.000,1.000,7.000,5.000,0
"05/02/07","23:09:15",48773.000,"cc",28334.889,1,0.100,38465.000,0.200,9140.000,0.300,1102.000,0.500,64.000,1.000,2.000,5.000,0
"05/02/07","23:09:21",49126.000,"cc",28291.709,1,0.100,38599.000,0.200,9378.000,0.300,1084.000,0.500,60.000,1.000,5.000,5.000,0
"05/02/07","23:09:27",49293.000,"cc",28313.992,1,0.100,38952.000,0.200,9092.000,0.300,1192.000,0.500,51.000,1.000,6.000,5.000,0
"05/02/07","23:09:33",49645.000,"cc",28263.600,1,0.100,39225.000,0.200,9274.000,0.300,1093.000,0.500,46.000,1.000,7.000,5.000,0
"05/02/07","23:09:39",49330.000,"cc",28244.051,1,0.100,38875.000,0.200,9269.000,0.300,1128.000,0.500,53.000,1.000,5.000,5.000,0
"05/02/07","23:09:45",48906.000,"cc",28302.881,1,0.100,38438.000,0.200,9331.000,0.300,1091.000,0.500,40.000,1.000,6.000,5.000,0
"05/02/07","23:09:51",49660.000,"cc",28295.502,1,0.100,39274.000,0.200,9279.000,0.300,1057.000,0.500,43.000,1.000,7.000,5.000,0
"05/02/07","23:09:57",49611.000,"cc",28284.393,1,0.100,39296.000,0.200,9143.000,0.300,1121.000,0.500,48.000,1.000,3.000,5.000,0
"05/02/07","23:10:03",48944.000,"cc",28312.627,1,0.100,38560.000,0.200,9287.000,0.300,1034.000,0.500,56.000,1.000,7.000,5.000,0
"05/02/07","23:10:09",48983.000,"cc",28374.086,1,0.100,38579.000,0.200,9262.000,0.300,1083.000,0.500,53.000,1.000,6.000,5.000,0
"05/02/07","23:10:15",49527.000,"cc",28349.627,1,0.100,39137.000,0.200,9194.000,0.300,1137.000,0.500,54.000,1.000,5.000,5.000,0
"05/02/07","23:10:21",49163.000,"cc",28332.594,1,0.100,38927.000,0.200,9128.000,0.300,1051.000,0.500,50.000,1.000,7.000,5.000,0
"05/02/07","23:10:27",49197.000,"cc",28332.674,1,0.100,38963.000,0.200,9123.000,0.300,1048.000,0.500,54.000,1.000,9.000,5.000,0
"05/02/07","23:10:33",49414.000,"cc",28326.898,1,0.100,39052.000,0.200,9226.000,0.300,1082.000,0.500,47.000,1.000,7.000,5.000,0
"05/02/07","23:10:39",49116.000,"cc",28327.943,1,0.100,38813.000,0.200,9085.000,0.300,1155.000,0.500,57.000,1.000,6.000,5.000,0
"05/02/07","23:10:45",48995.000,"cc",28342.664,1,0.100,38706.000,0.200,9126.000,0.300,1117.000,0.500,41.000,1.000,5.000,5.000,0
"05/02/07","23:10:51",49372.000,"cc",28304.482,1,0.100,38931.000,0.200,9246.000,0.300,1140.000,0.500,52.000,1.000,3.000,5.000,0
"05/02/07","23:10:57",49350.000,"cc",28308.475,1,0.100,38937.000,0.200,9205.000,0.300,1151.000,0.500,53.000,1.000,4.000,5.000,0
"05/02/07","23:11:03",49311.000,"cc",28356.869,1,0.100,38843.000,0.200,9283.000,0.300,1119.000,0.500,56.000,1.000,10.000,5.000,0
"05/02/07","23:11:09",49299.000,"cc",28276.963,1,0.100,38789.000,0.200,9289.000,0.300,1162.000,0.500,54.000,1.000,5.000,5.000,0
"05/02/07","23:11:15",48525.000,"cc",28270.750,1,0.100,38242.000,0.200,9171.000,0.300,1054.000,0.500,50.000,1.000,8.000,5.000,0
"05/02/07","23:11:21",48770.000,"cc",28339.732,1,0.100,38520.000,0.200,9066.000,0.300,1112.000,0.500,68.000,1.000,4.000,5.000,0
"05/02/07","23:11:27",48370.000,"cc",28370.057,1,0.100,38164.000,0.200,9044.000,0.300,1103.000,0.500,54.000,1.000,5.000,5.000,0
"05/02/07","23:11:33",49055.000,"cc",28262.535,1,0.100,38658.000,0.200,9184.000,0.300,1146.000,0.500,57.000,1.000,10.000,5.000,0
"05/02/07","23:11:39",48552.000,"cc",28389.947,1,0.100,38284.000,0.200,9086.000,0.300,1114.000,0.500,61.000,1.000,7.000,5.000,0
"05/02/07","23:11:45",48036.000,"cc",28296.287,1,0.100,37895.000,0.200,8929.000,0.300,1149.000,0.500,53.000,1.000,10.000,5.000,0
"05/02/07","23:11:51",48474.000,"cc",28244.668,1,0.100,38288.000,0.200,9033.000,0.300,1082.000,0.500,65.000,1.000,6.000,5.000,0
"05/02/07","23:11:57",48489.000,"cc",28375.398,1,0.100,38349.000,0.200,9049.000,0.300,1025.000,0.500,59.000,1.000,7.000,5.000,0
"05/02/07","23:12:03",48389.000,"cc",28256.209,1,0.100,38267.000,0.200,8987.000,0.300,1079.000,0.500,48.000,1.000,8.000,5.000,0
"05/02/07","23:12:09",48148.000,"cc",28311.322,1,0.100,38109.000,0.200,8900.000,0.300,1076.000,0.500,52.000,1.000,11.000,5.000,0
"05/02/07","23:12:15",47943.000,"cc",28365.535,1,0.100,37851.000,0.200,8927.000,0.300,1112.000,0.500,39.000,1.000,14.000,5.000,0
"05/02/07","23:12:21",47577.000,"cc",28359.725,1,0.100,37526.000,0.200,8932.000,0.300,1068.000,0.500,47.000,1.000,4.000,5.000,0
"05/02/07","23:12:27",47877.000,"cc",28319.506,1,0.100,37634.000,0.200,9106.000,0.300,1075.000,0.500,51.000,1.000,11.000,5.000,0
"05/02/07","23:12:33",47917.000,"cc",28337.428,1,0.100,37803.000,0.200,8969.000,0.300,1091.000,0.500,48.000,1.000,6.000,5.000,0
"05/02/07","23:12:39",47714.000,"cc",28229.488,1,0.100,37862.000,0.200,8748.000,0.300,1060.000,0.500,36.000,1.000,8.000,5.000,0
"05/02/07","23:12:45",47794.000,"cc",28296.100,1,0.100,37562.000,0.200,9123.000,0.300,1057.000,0.500,44.000,1.000,8.000,5.000,0
"05/02/07","23:12:51",47377.000,"cc",28365.238,1,0.100,37455.000,0.200,8818.000,0.300,1047.000,0.500,48.000,1.000,9.000,5.000,0
"05/02/07","23:12:57",47274.000,"cc",28320.436,1,0.100,37298.000,0.200,8831.000,0.300,1088.000,0.500,50.000,1.000,7.000,5.000,0
"05/02/07","23:13:03",47214.000,"cc",28344.889,1,0.100,37393.000,0.200,8677.000,0.300,1075.000,0.500,58.000,1.000,11.000,5.000,0
"05/02/07","23:13:09",46798.000,"cc",28372.186,1,0.100,36961.000,0.200,8728.000,0.300,1041.000,0.500,58.000,1.000,10.000,5.000,0
"05/02/07","23:13:15",46884.000,"cc",28249.238,1,0.100,36919.000,0.200,8845.000,0.300,1064.000,0.500,48.000,1.000,8.000,5.000,0
"05/02/07","23:13:21",47127.000,"cc",28287.494,1,0.100,37229.000,0.200,8743.000,0.300,1085.000,0.500,63.000,1.000,7.000,5.000,0
"05/02/07","23:13:27",46573.000,"cc",28297.986,1,0.100,36747.000,0.200,8724.000,0.300,1027.000,0.500,63.000,1.000,12.000,5.000,0
"05/02/07","23:13:33",46630.000,"cc",28343.481,1,0.100,36782.000,0.200,8768.000,0.300,1017.000,0.500,55.000,1.000,8.000,5.000,0
"05/02/07","23:13:39",47006.000,"cc",28312.693,1,0.100,37340.000,0.200,8589.000,0.300,1016.000,0.500,57.000,1.000,4.000,5.000,0
"05/02/07","23:13:45",46648.000,"cc",28275.088,1,0.100,36829.000,0.200,8695.000,0.300,1073.000,0.500,48.000,1.000,3.000,5.000,0
"05/02/07","23:13:51",47229.000,"cc",28364.238,1,0.100,37257.000,0.200,8849.000,0.300,1069.000,0.500,47.000,1.000,7.000,5.000,0
"05/02/07","23:13:57",46487.000,"cc",28287.379,1,0.100,36589.000,0.200,8748.000,0.300,1075.000,0.500,66.000,1.000,9.000,5.000,0
"05/02/07","23:14:03",46589.000,"cc",28350.795,1,0.100,36570.000,0.200,8927.000,0.300,1024.000,0.500,58.000,1.000,10.000,5.000,0
"05/02/07","23:14:09",46366.000,"cc",28320.787,1,0.100,36595.000,0.200,8704.000,0.300,1013.000,0.500,46.000,1.000,8.000,5.000,0
"05/02/07","23:14:15",46185.000,"cc",28328.158,1,0.100,36393.000,0.200,8715.000,0.300,1022.000,0.500,47.000,1.000,8.000,5.000,0
"05/02/07","23:14:21",45933.000,"cc",28307.588,1,0.100,36155.000,0.200,8694.000,0.300,1011.000,0.500,69.000,1.000,4.000,5.000,0
"05/02/07","23:14:27",45932.000,"cc",28331.400,1,0.100,36214.000,0.200,8650.000,0.300,1013.000,0.500,51.000,1.000,4.000,5.000,0
"05/02/07","23:14:33",45479.000,"cc",28344.068,1,0.100,35775.000,0.200,8643.000,0.300,1012.000,0.500,44.000,1.000,5.000,5.000,0
"05/02/07","23:12:21",47577.000,"cc",28359.725,1,0.100,37526.000,0.200,8932.000,0.300,1068.000,0.500,47.000,1.000,4.000,5.000,0
"05/02/07","23:12:27",47877.000,"cc",28319.506,1,0.100,37634.000,0.200,9106.000,0.300,1075.000,0.500,51.000,1.000,11.000,5.000,0
"05/02/07","23:12:33",47917.000,"cc",28337.428,1,0.100,37803.000,0.200,8969.000,0.300,1091.000,0.500,48.000,1.000,6.000,5.000,0
"05/02/07","23:12:39",47714.000,"cc",28229.488,1,0.100,37862.000,0.200,8748.000,0.300,1060.000,0.500,36.000,1.000,8.000,5.000,0
"05/02/07","23:12:45",47794.000,"cc",28296.100,1,0.100,37562.000,0.200,9123.000,0.300,1057.000,0.500,44.000,1.000,8.000,5.000,0
"05/02/07","23:12:51",47377.000,"cc",28365.238,1,0.100,37455.000,0.200,8818.000,0.300,1047.000,0.500,48.000,1.000,9.000,5.000,0
"05/02/07","23:12:57",47274.000,"cc",28320.436,1,0.100,37298.000,0.200,8831.000,0.300,1088.000,0.500,50.000,1.000,7.000,5.000,0
"05/02/07","23:13:03",47214.000,"cc",28344.889,1,0.100,37393.000,0.200,8677.000,0.300,1075.000,0.500,58.000,1.000,11.000,5.000,0
"05/02/07","23:13:09",46798.000,"cc",28372.186,1,0.100,36961.000,0.200,8728.000,0.300,1041.000,0.500,58.000,1.000,10.000,5.000,0
"05/02/07","23:13:15",46884.000,"cc",28249.238,1,0.100,36919.000,0.200,8845.000,0.300,1064.000,0.500,48.000,1.000,8.000,5.000,0
"05/02/07","23:13:21",47127.000,"cc",28287.494,1,0.100,37229.000,0.200,8743.000,0.300,1085.000,0.500,63.000,1.000,7.000,5.000,0
"05/02/07","23:13:27",46573.000,"cc",28297.986,1,0.100,36747.000,0.200,8724.000,0.300,1027.000,0.500,63.000,1.000,12.000,5.000,0
"05/02/07","23:13:33",46630.000,"cc",28343.481,1,0.100,36782.000,0.200,8768.000,0.300,1017.000,0.500,55.000,1.000,8.000,5.000,0
"05/02/07","23:13:39",47006.000,"cc",28312.693,1,0.100,37340.000,0.200,8589.000,0.300,1016.000,0.500,57.000,1.000,4.000,5.000,0
"05/02/07","23:13:45",46648.000,"cc",28275.088,1,0.100,36829.000,0.200,8695.000,0.300,1073.000,0.500,48.000,1.000,3.000,5.000,0
"05/02/07","23:13:51",47229.000,"cc",28364.238,1,0.100,37257.000,0.200,8849.000,0.300,1069.000,0.500,47.000,1.000,7.000,5.000,0
"05/02/07","23:13:57",46487.000,"cc",28287.379,1,0.100,36589.000,0.200,8748.000,0.300,1075.000,0.500,66.000,1.000,9.000,5.000,0
"05/02/07","23:14:03",46589.000,"cc",28350.795,1,0.100,36570.000,0.200,8927.000,0.300,1024.000,0.500,58.000,1.000,10.000,5.000,0
"05/02/07","23:14:09",46366.000,"cc",28320.787,1,0.100,36595.000,0.200,8704.000,0.300,1013.000,0.500,46.000,1.000,8.000,5.000,0
"05/02/07","23:14:15",46185.000,"cc",28328.158,1,0.100,36393.000,0.200,8715.000,0.300,1022.000,0.500,47.000,1.000,8.000,5.000,0
"05/02/07","23:14:21",45933.000,"cc",28307.588,1,0.100,36155.000,0.200,8694.000,0.300,1011.000,0.500,69.000,1.000,4.000,5.000,0
"05/02/07","23:14:27",45932.000,"cc",28331.400,1,0.100,36214.000,0.200,8650.000,0.300,1013.000,0.500,51.000,1.000,4.000,5.000,0
"05/02/07","23:14:33",45479.000,"cc",28344.068,1,0.100,35775.000,0.200,8643.000,0.300,1012.000,0.500,44.000,1.000,5.000,5.000,0
"05/02/07","23:14:39",45820.000,"cc",28297.018,1,0.100,36237.000,0.200,8508.000,0.300,1006.000,0.500,61.000,1.000,8.000,5.000,0
"05/02/07","23:14:45",45362.000,"cc",28279.004,1,0.100,35684.000,0.200,8576.000,0.300,1057.000,0.500,40.000,1.000,5.000,5.000,0
"05/02/07","23:14:51",45414.000,"cc",28287.027,1,0.100,35855.000,0.200,8429.000,0.300,1063.000,0.500,60.000,1.000,7.000,5.000,0
"05/02/07","23:14:57",45215.000,"cc",28322.875,1,0.100,35709.000,0.200,8460.000,0.300,981.000,0.500,56.000,1.000,9.000,5.000,0
"05/02/07","23:15:03",44999.000,"cc",28334.363,1,0.100,35475.000,0.200,8452.000,0.300,1022.000,0.500,46.000,1.000,4.000,5.000,0
"05/02/07","23:15:09",44627.000,"cc",28361.957,1,0.100,35147.000,0.200,8439.000,0.300,988.000,0.500,48.000,1.000,5.000,5.000,0